Wetbulb
58.66 61.46 71.98 70.75 71.57 71.56 71.50 72.52 72.56 72.83 73.39 73.97 74.07 73.77 73.38 73.31 73.34 72.92 71.61 71.62 70.97 72.13 70.87 71.47 71.58 73.41 71.19 72.31 71.57 71.63 70.48 69.73
53.11 65.06 68.52 68.73 69.32 69.76 70.48 70.65 70.96 71.63 73.10 73.42 73.60 73.53 73.22 72.97 73.12 72.86 71.47 70.14 69.06 70.09 69.53 69.53 70.16 70.54 69.69 69.03 68.61 68.34 68.52 68.87
55.38 68.62 66.91 67.61 68.60 69.34 69.12 69.82 71.14 71.93 71.86 71.86 72.39 72.51 72.59 72.75 72.83 72.79 72.10 70.04 68.83 68.90 68.56 69.04 69.56 69.35 69.23 67.93 66.79 66.45 66.12 65.92
62.09 66.54 66.14 67.52 68.96 69.33 68.31 68.40 69.65 70.56 71.01 70.84 70.18 70.92 70.71 70.57 71.04 71.66 72.01 70.01 67.98 68.41 68.47 69.08 68.47 68.93 68.58 68.04 66.54 65.79 65.32 65.04
54.91 66.81 65.65 65.49 66.96 67.50 66.89 68.25 70.30 69.83 69.91 70.97 71.50 69.84 70.13 70.20 70.25 70.45 71.59 70.47 70.24 71.22 70.13 68.95 69.03 69.43 70.04 70.00 68.88 68.49 67.28 66.61
52.08 66.57 66.36 66.00 65.74 65.96 67.14 69.52 69.60 65.65 70.20 70.84 71.94 71.47 70.10 70.37 71.18 70.46 71.24 71.26 70.92 69.70 69.35 69.41 70.30 69.53 67.93 67.16 66.40 65.60 66.42 65.30
54.46 66.52 66.35 65.46 65.03 64.68 64.75 65.43 64.69 65.76 69.44 70.11 69.74 72.11 71.20 70.13 69.39 70.07 71.33 71.84 71.19 70.29 69.77 68.98 68.81 66.58 65.17 66.37 63.25 63.81 63.23 62.71
56.40 66.74 66.36 65.45 64.52 63.71 64.20 65.61 65.45 68.35 68.13 67.73 70.98 71.61 70.40 69.10 65.77 66.76 70.29 70.68 70.08 69.02 67.15 65.52 65.72 63.57 63.72 62.14 60.34 60.88 61.56 61.48
56.05 67.31 65.96 64.64 63.45 64.30 65.78 66.72 67.30 67.95 68.45 67.53 67.93 69.75 69.48 69.50 70.26 70.85 69.76 69.50 69.24 66.54 64.57 63.40 63.11 62.83 61.32 60.84 59.07 58.81 59.83 61.49
61.01 66.18 67.09 65.07 65.07 66.47 66.61 66.69 67.91 67.84 69.17 67.28 67.90 68.16 67.75 68.61 69.08 69.61 69.93 69.55 68.11 65.49 63.41 61.94 62.25 62.23 60.63 60.30 59.58 57.78 58.05 58.50
62.96 64.36 65.87 67.11 67.28 67.08 66.27 66.27 66.63 66.67 68.70 66.85 65.64 65.18 66.07 65.69 63.99 64.05 64.85 68.64 69.34 66.29 64.04 62.77 64.56 63.17 61.31 59.89 59.68 57.59 55.71 55.37
62.21 61.83 61.98 62.24 61.91 63.23 62.73 62.21 62.58 64.38 66.56 65.38 63.62 62.06 61.70 60.93 60.20 59.67 60.64 61.00 62.24 64.39 65.70 66.28 66.44 63.14 61.92 60.97 59.64 56.58 54.61 53.25
59.01 59.07 59.40 59.66 59.96 59.56 59.78 59.94 60.23 60.75 60.48 59.56 60.30 59.69 58.77 57.33 56.77 56.82 57.13 58.83 59.49 60.62 59.51 61.23 61.76 59.71 59.00 58.10 58.08 58.47 56.93 55.14
57.80 58.13 58.32 57.74 58.25 58.13 58.48 58.14 57.68 58.38 58.48 57.36 56.76 56.19 55.03 55.22 54.50 54.31 54.23 55.11 56.73 57.47 57.33 56.23 55.62 55.26 55.50 56.34 57.85 59.00 58.77 57.73
56.52 56.46 56.75 56.35 55.96 56.08 56.80 56.57 55.58 56.07 56.28 55.75 55.63 54.92 54.44 53.94 53.49 52.99 53.14 53.14 53.27 53.49 54.17 54.07 54.03 54.13 54.14 54.25 53.95 54.62 55.25 55.79
55.77 55.75 55.85 55.43 54.98 55.02 55.33 55.24 54.67 54.82 55.53 54.22 53.83 53.76 53.90 53.50 53.08 52.84 52.55 52.28 52.62 52.91 52.92 53.27 53.82 54.54 54.23 53.20 52.75 52.72 53.17 52.91
53.10 54.17 54.53 54.68 54.69 53.93 53.51 53.40 53.75 54.10 53.67 52.80 52.87 53.13 52.95 52.55 52.41 52.64 52.52 52.57 53.81 52.40 52.17 51.22 51.21 50.74 50.39 49.28 48.98 48.79 49.03 48.59
52.76 53.20 53.14 53.43 53.20 52.23 52.33 52.22 52.24 51.91 51.74 52.16 52.31 52.45 52.66 52.07 51.91 51.39 51.50 51.30 50.85 49.94 49.47 49.01 48.97 49.18 48.93 47.73 46.97 47.51 47.46 47.20
52.51 53.00 52.85 51.39 51.45 50.78 50.04 50.44 50.27 50.06 50.83 51.14 51.40 51.62 51.93 51.69 51.10 50.85 50.85 49.82 49.08 49.06 49.22 48.71 48.60 48.41 48.25 47.20 46.63 47.36 47.67 47.08
53.02 52.48 51.14 50.29 49.53 49.57 48.89 48.81 49.44 49.36 50.22 50.93 50.90 50.70 50.64 50.39 49.92 49.97 50.22 48.65 48.54 48.68 49.02 48.87 49.06 49.31 48.63 47.38 47.31 48.22 47.75 47.50
MSLP
1004.26 1005.57 1006.21 1007.21 1008.20 1008.83 1009.62 1010.20 1010.26 1009.82 1009.96 1010.46 1011.04 1011.32 1011.66 1012.11 1012.50 1012.56 1012.80 1013.01 1013.30 1013.69 1014.02 1014.06 1014.12 1014.27 1014.57 1014.63 1014.82 1015.02 1015.43 1015.56
1004.37 1005.50 1006.54 1007.38 1008.18 1008.81 1009.03 1010.22 1009.99 1010.09 1010.40 1010.33 1010.07 1010.64 1010.79 1011.03 1011.58 1012.23 1012.51 1012.81 1013.09 1013.38 1013.53 1013.75 1014.00 1013.92 1014.26 1014.58 1014.84 1015.07 1015.33 1015.34
1005.22 1006.19 1006.97 1007.48 1007.64 1008.39 1009.17 1009.92 1009.89 1008.50 1010.34 1010.39 1010.38 1010.23 1010.36 1010.46 1010.97 1011.72 1012.05 1012.35 1013.01 1013.09 1013.30 1013.27 1013.32 1013.58 1013.86 1014.30 1014.75 1014.90 1014.89 1015.21
1005.79 1006.66 1007.43 1007.64 1007.74 1007.65 1008.59 1009.09 1009.00 1009.01 1009.66 1010.31 1010.39 1010.36 1010.70 1011.09 1010.66 1011.36 1011.78 1012.00 1012.59 1013.03 1013.07 1012.96 1013.00 1013.10 1013.43 1013.92 1014.52 1015.03 1015.14 1015.19
1004.95 1006.12 1006.86 1007.14 1007.80 1007.71 1008.03 1007.87 1007.71 1007.92 1008.06 1008.93 1009.24 1010.15 1010.16 1010.38 1010.49 1011.00 1011.34 1011.90 1012.42 1012.45 1012.95 1012.91 1012.95 1012.93 1013.19 1013.67 1014.21 1014.53 1015.06 1014.85
1004.11 1005.46 1006.34 1007.18 1007.67 1007.94 1007.48 1007.33 1007.69 1008.55 1008.99 1009.49 1009.78 1009.48 1009.87 1010.26 1010.47 1010.61 1010.78 1011.49 1012.00 1012.22 1012.41 1012.42 1012.59 1013.22 1013.57 1013.99 1014.19 1014.23 1015.16 1014.74
1003.94 1004.83 1005.73 1006.63 1007.00 1007.83 1007.59 1007.57 1007.94 1008.57 1009.27 1009.67 1009.80 1010.00 1010.23 1010.43 1010.40 1010.37 1010.51 1011.10 1011.44 1011.68 1012.01 1012.26 1012.99 1013.47 1013.77 1013.97 1014.29 1014.18 1014.98 1014.86
1003.47 1004.62 1005.39 1006.18 1006.87 1007.83 1007.66 1007.83 1008.40 1008.79 1009.35 1009.98 1009.96 1010.03 1010.01 1010.21 1011.06 1011.21 1011.04 1011.16 1011.44 1011.66 1011.90 1012.95 1012.89 1013.34 1013.86 1014.18 1014.09 1014.36 1014.55 1014.46
1003.10 1004.15 1005.07 1006.23 1007.49 1008.00 1007.79 1007.90 1008.23 1008.83 1009.32 1009.83 1010.15 1010.14 1010.00 1010.39 1010.93 1010.80 1011.17 1011.40 1011.64 1011.91 1012.38 1012.86 1013.05 1013.56 1013.95 1013.94 1014.29 1014.48 1014.55 1014.21
1003.44 1004.39 1005.36 1006.13 1006.80 1007.58 1007.82 1007.89 1008.22 1008.74 1009.16 1009.59 1009.61 1009.83 1010.23 1010.33 1010.74 1010.83 1011.06 1011.22 1011.47 1011.94 1012.53 1012.81 1013.17 1013.74 1014.01 1014.15 1014.07 1014.31 1014.23 1014.08
1004.14 1004.79 1005.44 1006.02 1006.65 1007.34 1007.82 1008.01 1008.06 1008.44 1008.56 1008.99 1009.64 1009.94 1010.60 1011.24 1011.70 1011.77 1011.54 1011.49 1011.67 1011.95 1012.29 1012.64 1013.01 1013.44 1013.89 1014.05 1014.17 1014.34 1014.53 1014.03
1004.78 1005.57 1006.18 1006.66 1007.02 1007.53 1008.07 1008.32 1008.70 1008.73 1009.09 1009.49 1010.13 1010.82 1011.63 1012.29 1012.58 1012.42 1012.47 1012.12 1012.02 1012.14 1012.24 1012.37 1013.06 1013.70 1014.03 1014.05 1014.05 1014.28 1014.48 1014.38
1005.39 1006.11 1006.74 1007.22 1007.93 1008.12 1008.67 1008.97 1009.31 1009.52 1009.99 1010.13 1010.67 1011.62 1012.08 1012.71 1013.14 1013.04 1013.13 1013.04 1012.90 1013.02 1013.17 1013.29 1013.79 1014.03 1014.23 1014.42 1014.55 1014.60 1014.43 1014.36
1006.22 1007.01 1007.47 1007.98 1008.58 1008.91 1009.25 1009.21 1010.42 1010.29 1010.44 1011.10 1011.46 1012.10 1012.92 1013.37 1013.80 1014.07 1014.21 1014.07 1013.96 1014.01 1013.92 1014.09 1014.29 1014.32 1014.54 1014.55 1014.51 1014.34 1014.13 1013.90
1006.45 1007.30 1008.20 1008.73 1009.06 1009.47 1009.66 1009.86 1010.74 1010.86 1011.16 1011.62 1011.97 1012.50 1013.12 1013.58 1014.16 1014.50 1014.69 1014.88 1015.03 1014.92 1014.69 1014.70 1014.72 1014.71 1014.58 1014.48 1014.46 1014.21 1014.07 1013.90
1007.19 1007.77 1008.41 1009.21 1009.83 1010.31 1010.78 1011.08 1011.23 1011.73 1011.91 1012.38 1012.71 1013.08 1013.54 1014.00 1014.24 1014.50 1014.79 1014.89 1014.90 1014.92 1014.80 1014.66 1014.66 1014.50 1014.57 1014.57 1014.53 1014.51 1014.32 1014.09
1007.44 1008.28 1009.13 1009.79 1010.40 1010.95 1011.12 1011.73 1011.97 1012.39 1012.56 1012.83 1013.30 1013.64 1014.01 1014.37 1014.50 1014.53 1014.54 1014.48 1014.54 1014.65 1014.65 1014.73 1014.83 1014.87 1014.86 1014.84 1014.77 1014.57 1014.31 1014.06
1007.44 1008.41 1009.00 1010.05 1010.44 1011.02 1011.59 1012.06 1012.42 1012.59 1012.82 1013.15 1013.59 1013.92 1014.13 1014.24 1014.33 1014.51 1014.46 1014.49 1014.56 1014.68 1014.79 1014.88 1014.86 1014.77 1014.69 1014.67 1014.57 1014.28 1014.13 1013.80
1007.54 1008.08 1009.07 1010.36 1011.14 1011.60 1012.19 1012.67 1013.02 1013.09 1013.21 1013.49 1013.78 1014.10 1014.25 1014.29 1014.34 1014.37 1014.35 1014.39 1014.44 1014.50 1014.54 1014.56 1014.57 1014.41 1014.30 1014.36 1014.23 1013.95 1013.82 1013.46
1007.66 1007.27 1009.51 1011.28 1012.18 1012.44 1012.81 1013.11 1013.49 1013.81 1013.80 1013.92 1014.11 1014.16 1014.21 1014.15 1014.20 1014.30 1014.34 1014.29 1014.32 1014.42 1014.52 1014.57 1014.47 1014.23 1014.13 1014.05 1013.91 1013.59 1013.30 1012.85
Wind_Speed
8 7 14 14 14 9 7 6 3 5 6 6 4 4 4 4 6 6 5 4 4 3 3 3 4 7 4 5 4 3 3 3
5 11 16 18 16 13 14 6 9 4 2 6 9 8 8 7 7 8 5 3 4 4 3 4 4 3 4 4 2 3 4 5
7 14 14 16 20 17 12 8 8 7 4 7 6 7 6 7 7 7 7 5 4 4 4 4 5 4 4 4 4 4 5 4
10 15 18 14 16 19 13 10 8 8 9 6 4 3 5 4 5 7 7 4 4 5 4 6 4 4 3 2 1 3 4 2
11 16 19 19 14 16 17 18 18 15 11 5 5 6 5 7 6 7 7 6 5 5 2 3 2 3 5 6 6 5 5 5
8 17 19 17 16 17 16 15 16 4 5 4 4 3 5 7 5 4 7 6 5 4 3 5 6 3 4 3 2 5 3 5
6 19 21 20 18 15 15 13 13 10 5 3 2 4 2 2 4 3 6 8 7 5 4 2 5 4 3 4 2 3 2 3
12 18 18 19 16 13 13 11 11 11 5 4 2 2 3 4 4 2 5 5 6 5 1 3 5 5 3 3 4 2 4 5
12 18 19 15 11 11 10 10 8 7 3 4 2 4 1 2 5 7 5 4 4 1 4 4 4 4 4 5 3 4 4 2
9 13 12 14 15 12 8 8 9 8 3 3 3 3 3 4 4 5 3 4 4 3 3 3 5 4 5 5 4 2 1 4
14 16 14 13 13 14 6 5 6 4 6 4 4 5 4 4 4 3 6 6 2 4 4 4 4 3 3 3 3 3 3 2
15 15 15 11 9 11 10 8 7 7 7 5 4 4 5 2 2 4 7 9 9 8 7 2 3 2 3 3 2 3 2 4
16 16 15 12 9 9 9 11 10 9 10 7 8 10 5 4 4 8 7 8 8 9 9 8 5 3 2 2 4 5 3 2
16 14 13 10 9 10 9 13 9 9 11 8 9 10 7 7 5 5 4 4 5 7 7 6 5 4 3 3 4 4 4 4
16 15 13 11 10 8 8 11 9 9 11 10 9 10 9 8 6 4 5 3 2 3 3 4 2 2 4 4 4 5 5 4
13 12 12 11 8 9 8 9 9 8 10 9 7 8 5 4 4 4 4 3 4 2 4 4 5 6 5 5 3 4 5 5
17 15 13 12 11 8 9 8 8 8 8 7 7 7 7 6 5 4 3 3 3 6 6 6 5 4 3 3 3 5 4 4
18 16 15 11 11 8 8 7 8 7 8 6 6 6 6 6 5 4 4 4 4 5 3 2 3 3 4 4 4 5 6 5
17 15 13 9 7 8 8 8 7 7 6 4 6 5 5 5 5 3 4 4 3 2 1 3 4 5 6 5 6 7 8 8
16 18 15 9 9 10 10 8 8 6 6 5 5 4 4 4 3 2 3 3 1 2 3 4 5 6 6 6 7 8 9 10
Wind_Direction
153 123 170 130 126 111 88 103 134 153 138 134 149 146 155 165 182 178 181 178 188 187 190 209 189 208 210 214 232 239 287 284
211 111 127 133 130 132 128 126 103 49 83 176 171 177 184 178 185 187 183 187 188 191 188 194 199 198 203 221 234 249 242 235
84 112 119 138 140 146 152 146 145 132 185 199 202 194 187 187 173 186 190 184 193 180 204 195 196 180 195 202 216 225 221 244
115 127 140 146 153 150 144 163 155 165 184 221 208 190 191 184 167 196 194 169 177 200 211 205 201 189 195 184 303 307 312 319
159 152 157 159 171 157 168 167 186 195 198 197 152 206 183 195 188 171 178 191 162 163 197 131 146 132 131 107 94 73 71 91
165 151 155 163 161 179 169 174 185 166 146 189 213 206 191 207 198 191 169 165 161 156 171 179 156 144 104 91 109 94 104 79
140 154 158 170 175 180 177 186 192 182 181 201 270 230 178 132 126 117 137 161 174 185 213 46 87 112 149 151 57 84 91 51
153 160 165 169 176 189 182 176 182 177 159 194 232 271 207 142 109 198 169 165 184 211 166 81 104 98 78 74 109 116 165 173
140 160 172 162 162 181 191 184 162 152 127 168 187 210 208 102 150 147 146 165 181 144 109 106 88 109 163 164 147 187 233 238
116 152 146 151 155 164 163 171 153 168 150 164 165 134 93 58 53 49 53 97 129 162 163 160 140 135 158 183 174 205 300 196
113 118 120 135 147 156 132 108 105 104 151 106 60 63 58 56 30 33 19 47 97 153 168 164 165 154 197 197 231 184 256 264
108 108 103 109 96 96 94 95 89 73 83 89 95 110 104 75 68 62 56 51 49 45 36 109 130 141 205 230 259 236 230 261
112 104 102 97 93 101 100 82 69 71 76 79 97 90 86 80 75 77 65 53 50 52 50 51 64 56 354 276 268 243 233 252
102 101 103 99 105 99 90 94 82 79 86 76 89 102 100 90 70 77 63 58 44 45 51 56 53 50 27 351 334 316 276 260
118 118 114 109 99 91 92 89 88 83 83 79 81 86 89 94 94 93 94 93 85 73 77 65 38 355 350 350 336 331 323 310
121 116 111 108 93 87 90 91 91 85 92 88 85 89 88 92 101 107 110 118 131 108 68 47 21 17 12 12 358 339 341 329
122 117 109 109 105 99 99 92 87 92 99 93 91 101 106 115 113 109 106 89 70 49 50 48 34 23 9 350 316 305 308 288
122 119 114 109 107 103 94 97 106 111 106 105 111 118 116 113 101 97 95 85 83 83 67 34 326 301 292 289 284 280 281 278
130 124 105 95 91 91 87 78 76 66 80 95 107 115 117 113 112 115 112 121 127 119 334 311 302 293 285 271 265 264 259 261
141 112 105 96 93 86 84 76 67 53 55 72 95 112 113 109 115 125 145 155 181 261 284 298 293 286 276 266 265 270 262 266